sat.trackr.live / text

‹ back to catalog

STARLINK-37763

NORAD 69217 · 2026-115G

PAYLOAD ACTIVE UNKNOWN

§ Identity

Operator
Country
US
Launch date
2026-05-26
Launch site
AFWTR
Launch vehicle
Mass (kg)
RCS (m²)

Purposes: comms

External: N2YO · Heavens-Above · Gunter

§ Orbital elements

Epoch: 2026-09-19T11:47:05.797248Z

Period
93.91 min
Inclination
97.2817°
Eccentricity
0.0001048
Mean motion
15.33451949 rev/d
Perigee alt
464.8 km
Apogee alt
466.2 km
Semi-major
6,843.7 km
B*
4.6154e-4
RAAN
278.5644°
Arg perigee
99.7284°
Mean anomaly
260.4078°
Rev number
1,913

§ Raw data

STARLINK-377631 69217U 26115G   26262.49103932  .00014858  00000+0  46154-3 0  99972 69217  97.2817 278.5644 0001048  99.7284 260.4078 15.33451949 19134

JSON: /api/v1/satellites/69217 · /tle

For live sub-satellite position, see the globe view (requires WebGL).

§ Visibility from observer

Set your observer location to see the next 7 days of passes ≥ 10°. The values pass through the URL so the page stays shareable.

No JS? Fill the form by hand. The geolocation button needs JavaScript.